Location: Vale
(35.4830°N, 81.3830°W)
Time: 19:26:21
(UTC-04:00)

Amateur Radio Satellites - All Passes

Search period start: 22 July 2014 18:56
Search period end: 23 July 2014 18:56
Location: Vale, 35.4830°N, 81.3830°W

Satellite Date Start Highest point End Downlink Frequencies (MHz)
Time Altitude Azimuth
AO-7 22 Jul 18:59:51 19:04:05 15° 268° (W) 19:08:20 29.400 - 29.500 MHz
KITSAT 1 22 Jul 19:09:41 19:16:21 29° 254° (WSW) 19:22:59 435.175 FM
RS-15 22 Jul 19:33:21 19:37:40 13° 349° (NNW) 19:41:59 29.354 - 29.394 USB, Beacon 29.352 USB
Oscar 10/S400 22 Jul 19:34:10 19:50:47 30° 144° (SE) 20:11:34 145.825 - 145.975 CW/USB, Beacon 145.810 USB
Hamsat 22 Jul 19:48:35 19:51:12 16° 266° (W) 19:53:49 145.90 MHz
HO-68 22 Jul 19:50:12 19:52:42 12° 55° (NE) 19:55:12 435.675 MHz FM
JAS-2 22 Jul 20:04:16 20:11:13 35° 264° (W) 20:18:07 435.800 - 435.900 CW/SSB, 435.910 FM
Saudisat 1A 22 Jul 20:06:00 20:09:43 27° 248° (WSW) 20:13:24 436.775 MHz
STRAND 1 22 Jul 20:12:44 20:17:52 82° 103° (ESE) 20:22:57 ?
SO-67 22 Jul 20:18:37 20:21:53 39° 262° (W) 20:25:10 435.3500 MHz FM
HO-68 22 Jul 21:32:02 21:39:10 74° 72° (ENE) 21:46:19 435.675 MHz FM
AO-40 22 Jul 21:41:01 04:31:50 43° 183° (S) 10:12:54 Beacon 2401.320
RS-15 22 Jul 21:49:51 21:56:49 18° 27° (NNE) 22:03:52 29.354 - 29.394 USB, Beacon 29.352 USB
STRAND 1 22 Jul 21:55:13 21:56:19 11° 299° (WNW) 21:57:24 ?
Oscar 11 22 Jul 22:22:38 22:26:55 74° 76° (ENE) 22:31:13 145.825 FM, Beacon 2401.500 USB
MaSat-1 22 Jul 22:25:08 22:27:27 16° 100° (E) 22:29:59 437.345 MHz
FUNcube-1 22 Jul 22:25:21 22:29:02 27° 71° (ENE) 22:32:40 145.950 - 145.970 MHz USB
SO-50 22 Jul 23:19:02 23:23:14 30° 53° (NE) 23:27:27 436.795 FM
HO-68 22 Jul 23:22:56 23:27:24 17° 267° (W) 23:31:54 435.675 MHz FM
Lituanica SAT-1 22 Jul 23:57:31 23:58:25 12° 130° (SE) 23:59:19 437.275 MHz beacon
MaSat-1 23 Jul 00:00:55 00:04:21 32° 301° (WNW) 00:08:19 437.345 MHz
RS-15 23 Jul 00:01:16 00:12:11 59° 55° (NE) 00:23:26 29.354 - 29.394 USB, Beacon 29.352 USB
FUNcube-1 23 Jul 00:01:52 00:05:22 23° 264° (W) 00:08:49 145.950 - 145.970 MHz USB
UOSAT-12 23 Jul 00:20:44 00:21:33 10° 42° (NE) 00:22:22 437.025 FM, 437.400 FM
SO-50 23 Jul 00:59:38 01:03:42 28° 248° (WSW) 01:07:48 436.795 FM
Lituanica SAT-1 23 Jul 01:29:28 01:31:11 20° 324° (NW) 01:32:56 437.275 MHz beacon
UOSAT-12 23 Jul 01:57:44 02:02:28 80° 60° (ENE) 02:07:07 437.025 FM, 437.400 FM
Sapphire 23 Jul 02:02:26 02:07:08 31° 108° (ESE) 02:11:50 437.095 MHz 1200 baud AX-25 AFSK
ISS 23 Jul 02:07:55 02:11:14 69° 136° (SE) 02:14:34 145.800 FM
RS-15 23 Jul 02:14:19 02:23:58 36° 254° (WSW) 02:33:59 29.354 - 29.394 USB, Beacon 29.352 USB
AO-Echo 23 Jul 02:16:21 02:17:42 11° 90° (E) 02:19:02 ?
PCSat 23 Jul 02:35:45 02:41:06 71° 114° (ESE) 02:46:31 145.825 MHz
Oscar 19 23 Jul 02:42:31 02:47:32 51° 100° (E) 02:52:33 437.125 CW, 437.150 USB
Oscar 16 23 Jul 03:09:36 03:14:46 81° 284° (WNW) 03:19:56 437.025 USB, Beacon 2401.1428
ITAMSAT 1 23 Jul 03:16:33 03:21:34 49° 100° (E) 03:26:33 435.822 SSB
Gurwin Techsat 1B 23 Jul 03:19:25 03:23:17 20° 94° (E) 03:27:07 435.225 FM
JAS-1B 23 Jul 03:24:37 03:33:28 42° 95° (E) 03:41:10 435.800 - 435.900 CW/SSB
AO-27 23 Jul 03:33:50 03:39:02 75° 103° (ESE) 03:44:12 436.795 MHz FM
OPAL 23 Jul 03:36:01 03:39:47 22° 65° (ENE) 03:43:33 ?
Uribyol 2 23 Jul 03:37:38 03:42:50 85° 104° (ESE) 03:47:59 436.500 FM
Sapphire 23 Jul 03:45:41 03:50:27 31° 304° (NW) 03:55:16 437.095 MHz 1200 baud AX-25 AFSK
ISS 23 Jul 03:46:13 03:48:17 15° 332° (NNW) 03:50:21 145.800 FM
AO-Echo 23 Jul 03:51:50 03:56:57 69° 285° (WNW) 04:01:53 ?
PCSat 23 Jul 04:21:47 04:25:03 16° 311° (NW) 04:28:21 145.825 MHz
Oscar 19 23 Jul 04:23:10 04:26:26 17° 295° (WNW) 04:29:42 437.125 CW, 437.150 USB
TMSAT-1 23 Jul 04:38:05 04:43:24 88° 103° (ESE) 04:48:41 436.925 FM
ITAMSAT 1 23 Jul 04:57:14 05:00:38 18° 295° (WNW) 05:04:02 435.822 SSB
Gurwin Techsat 1B 23 Jul 04:58:23 05:03:23 43° 289° (WNW) 05:08:21 435.225 FM
AO-7 23 Jul 05:07:36 05:15:13 38° 99° (E) 05:22:45 29.400 - 29.500 MHz
OPAL 23 Jul 05:13:53 05:18:26 36° 260° (W) 05:22:59 ?
JAS-1B 23 Jul 05:14:56 05:23:51 45° 295° (WNW) 05:31:45 435.800 - 435.900 CW/SSB
AO-27 23 Jul 05:15:59 05:17:51 12° 298° (WNW) 05:19:44 436.795 MHz FM
Uribyol 2 23 Jul 05:20:54 05:21:32 10° 299° (WNW) 05:22:09 436.500 FM
Uosat F 23 Jul 05:42:50 05:47:53 84° 103° (ESE) 05:52:53 435.120 FM
TMSAT-1 23 Jul 06:21:48 06:22:31 10° 299° (WNW) 06:23:14 436.925 FM
AO-7 23 Jul 07:00:16 07:07:57 43° 296° (WNW) 07:15:36 29.400 - 29.500 MHz
JAS-2 23 Jul 07:18:07 07:23:57 44° 97° (E) 07:29:10 435.800 - 435.900 CW/SSB, 435.910 FM
STRAND 1 23 Jul 07:25:32 07:30:41 86° 76° (ENE) 07:35:52 ?
Hamsat 23 Jul 07:35:22 07:39:39 76° 283° (WNW) 07:43:57 145.90 MHz
KITSAT 1 23 Jul 07:37:56 07:45:47 58° 112° (ESE) 07:53:40 435.175 FM
Lituanica SAT-1 23 Jul 07:44:47 07:46:51 34° 39° (NE) 07:48:54 437.275 MHz beacon
SO-67 23 Jul 07:46:19 07:48:33 16° 94° (E) 07:50:47 435.3500 MHz FM
PANSAT 23 Jul 08:19:20 08:22:07 19° 166° (SSE) 08:24:54 not established
MaSat-1 23 Jul 08:21:43 08:26:25 31° 59° (ENE) 08:30:56 437.345 MHz
Saudisat 1A 23 Jul 08:32:02 08:34:09 13° 108° (ESE) 08:36:16 436.775 MHz
ISS 23 Jul 08:39:34 08:42:22 24° 33° (NNE) 08:45:09 145.800 FM
Oscar 10/S400 23 Jul 08:44:40 09:47:27 18° 262° (W) 11:40:27 145.825 - 145.975 CW/USB, Beacon 145.810 USB
JAS-2 23 Jul 09:03:56 09:08:36 23° 297° (WNW) 09:12:54 435.800 - 435.900 CW/SSB, 435.910 FM
HO-68 23 Jul 09:05:37 09:09:22 15° 92° (E) 09:13:06 435.675 MHz FM
SO-67 23 Jul 09:18:50 09:21:34 22° 288° (WNW) 09:24:17 435.3500 MHz FM
KITSAT 1 23 Jul 09:34:33 09:41:33 31° 310° (NW) 09:48:35 435.175 FM
PANSAT 23 Jul 09:58:30 10:01:50 28° 178° (S) 10:05:10 not established
MaSat-1 23 Jul 09:59:06 10:03:44 31° 255° (WSW) 10:08:09 437.345 MHz
Saudisat 1A 23 Jul 10:08:58 10:13:16 51° 303° (WNW) 10:17:36 436.775 MHz
Oscar 11 23 Jul 10:14:29 10:17:17 17° 94° (E) 10:20:06 145.825 FM, Beacon 2401.500 USB
ISS 23 Jul 10:16:06 10:19:07 32° 228° (SW) 10:22:08 145.800 FM
HO-68 23 Jul 10:50:33 10:57:44 82° 287° (WNW) 11:04:51 435.675 MHz FM
Sapphire 23 Jul 10:54:09 10:57:18 15° 48° (NE) 11:00:25 437.095 MHz 1200 baud AX-25 AFSK
PCSat 23 Jul 11:27:07 11:31:53 30° 55° (NE) 11:36:36 145.825 MHz
PANSAT 23 Jul 11:38:34 11:41:35 22° 191° (S) 11:44:36 not established
Oscar 11 23 Jul 11:49:37 11:53:33 34° 288° (WNW) 11:57:28 145.825 FM, Beacon 2401.500 USB
FUNcube-1 23 Jul 11:52:59 11:57:10 86° 102° (ESE) 12:01:21 145.950 - 145.970 MHz USB
Sapphire 23 Jul 12:35:52 12:41:17 74° 246° (WSW) 12:46:40 437.095 MHz 1200 baud AX-25 AFSK
HO-68 23 Jul 12:41:03 12:44:19 14° 304° (NW) 12:47:35 435.675 MHz FM
Oscar 16 23 Jul 12:48:24 12:50:01 11° 62° (ENE) 12:51:38 437.025 USB, Beacon 2401.1428
PCSat 23 Jul 13:10:27 13:15:14 33° 251° (WSW) 13:20:00 145.825 MHz
Uribyol 2 23 Jul 13:18:16 13:18:57 10° 61° (ENE) 13:19:38 436.500 FM
AO-Echo 23 Jul 13:26:06 13:28:15 13° 62° (ENE) 13:30:26 ?
SO-50 23 Jul 13:32:34 13:35:29 17° 109° (ESE) 13:38:27 436.795 FM
Oscar 19 23 Jul 13:56:27 14:01:25 54° 73° (ENE) 14:06:24 437.125 CW, 437.150 USB
JAS-1B 23 Jul 14:04:57 14:11:54 29° 59° (ENE) 14:19:33 435.800 - 435.900 CW/SSB
TMSAT-1 23 Jul 14:20:19 14:21:54 11° 62° (ENE) 14:23:30 436.925 FM
RS-15 23 Jul 14:20:54 14:31:32 51° 110° (ESE) 14:41:52 29.354 - 29.394 USB, Beacon 29.352 USB
Oscar 16 23 Jul 14:23:34 14:28:40 76° 257° (WSW) 14:33:48 437.025 USB, Beacon 2401.1428
ITAMSAT 1 23 Jul 14:31:30 14:36:35 55° 73° (ENE) 14:41:41 435.822 SSB
Gurwin Techsat 1B 23 Jul 14:37:38 14:41:51 25° 67° (ENE) 14:46:05 435.225 FM
AO-27 23 Jul 14:48:53 14:54:07 84° 76° (ENE) 14:59:22 436.795 MHz FM
Uribyol 2 23 Jul 14:52:26 14:57:39 87° 256° (WSW) 15:02:53 436.500 FM
AO-Echo 23 Jul 15:01:04 15:06:18 75° 258° (WSW) 15:11:38 ?
SO-50 23 Jul 15:11:29 15:15:41 40° 305° (NW) 15:19:58 436.795 FM
KITSAT 1 23 Jul 15:35:37 15:40:55 18° 41° (NE) 15:46:11 435.175 FM
Oscar 19 23 Jul 15:38:15 15:41:02 15° 267° (W) 15:43:50 437.125 CW, 437.150 USB
JAS-1B 23 Jul 15:53:20 16:01:27 67° 259° (W) 16:10:57 435.800 - 435.900 CW/SSB
TMSAT-1 23 Jul 15:55:46 16:01:04 82° 257° (WSW) 16:06:24 436.925 FM
AO-7 23 Jul 16:03:16 16:10:52 41° 64° (ENE) 16:18:29 29.400 - 29.500 MHz
UOSAT-12 23 Jul 16:06:01 16:10:24 48° 115° (ESE) 16:14:53 437.025 FM, 437.400 FM
ITAMSAT 1 23 Jul 16:13:24 16:16:22 15° 267° (W) 16:19:20 435.822 SSB
Gurwin Techsat 1B 23 Jul 16:16:44 16:21:35 36° 262° (W) 16:26:28 435.225 FM
RS-15 23 Jul 16:33:31 16:43:56 44° 310° (NW) 16:54:14 29.354 - 29.394 USB, Beacon 29.352 USB
Uosat F 23 Jul 16:52:58 16:58:00 84° 76° (ENE) 17:03:05 435.120 FM
OPAL 23 Jul 17:26:01 17:31:05 75° 105° (ESE) 17:36:11 ?
JAS-2 23 Jul 17:26:49 17:32:00 20° 62° (ENE) 17:37:04 435.800 - 435.900 CW/SSB, 435.910 FM
KITSAT 1 23 Jul 17:29:30 17:37:37 80° 62° (ENE) 17:45:40 435.175 FM
UOSAT-12 23 Jul 17:47:36 17:50:49 18° 312° (NW) 17:54:04 437.025 FM, 437.400 FM
JAS-1B 23 Jul 17:53:12 17:53:49 10° 278° (W) 17:54:25 435.800 - 435.900 CW/SSB
AO-7 23 Jul 17:55:48 18:03:31 41° 260° (W) 18:11:18 29.400 - 29.500 MHz
Hamsat 23 Jul 18:25:46 18:29:47 50° 75° (ENE) 18:33:50 145.90 MHz
Saudisat 1A 23 Jul 18:38:29 18:42:47 50° 57° (ENE) 18:47:02 436.775 MHz
